User: anonymous   Login
Location: Little Italy
(37.8008°N, 122.4108°W)
Time: 06:50:34
(UTC+00:00)
Language:

CZ-4B DEB - Orbit

View from above orbital plane
View from above orbital plane
View from above satellite
View from above satellite

Ground track
Ground track

The orbit data is extracted from the following two-line orbital elements,

1 27433U 02024D   21015.76838157  .00000043  00000-0  48189-4 0  9992
2 27433  99.0852  20.6320 0014059 327.9206  32.1108 14.12454535961897
Epoch (UTC): 15 January 2021 18:26:28
Eccentricity: 0.0014059
inclination: 99.0852°
perigee height: 841 km
apogee height: 861 km
right ascension of ascending node: 20.6320°
argument of perigee: 327.9206°
revolutions per day: 14.12454535
mean anomaly at epoch: 32.1108°
orbit number at epoch: 96189

The dashed part of the orbit path shows where the satellite is in the earth's shadow,  

DLR